| time (UTC) | temp C | wind direction | speed KPH | gust KPH | rain 1hr cm | rain 24hr cm | rain mn cm | humidity % | barometer mb |
| 20260904073054 | 17 | 152 | 0.0 | 3.2 | 0.00 | 0.00 | 0.00 | 88 | 1021.1 |
| 20260904070052 | 15 | 152 | 1.6 | 3.2 | 0.00 | 0.00 | 0.00 | 92 | 1020.9 |
| 20260904063105 | 13 | 152 | 0.0 | 4.8 | 0.00 | 0.03 | 0.00 | 96 | 1021.1 |
| 20260904060127 | 11 | 69 | 0.0 | 0.0 | 0.00 | 0.03 | 0.00 | 95 | 1021.1 |
| 20260904053058 | 10 | 69 | 0.0 | 3.2 | 0.00 | 0.03 | 0.00 | 94 | 1021.0 |
| 20260904050104 | 10 | 69 | 0.0 | 0.0 | 0.00 | 0.03 | 0.00 | 93 | 1021.2 |
| 20260904044559 | 10 | 69 | 0.0 | 0.0 | 0.00 | 0.03 | 0.00 | 92 | 1021.2 |
| 20260904043100 | 11 | 69 | 0.0 | 0.0 | 0.00 | 0.03 | 0.00 | 93 | 1021.0 |
| 20260904041547 | 11 | 69 | 0.0 | 3.2 | 0.00 | 0.03 | 0.00 | 94 | 1020.9 |
| 20260904034605 | 11 | 209 | 0.0 | 3.2 | 0.00 | 0.03 | 0.00 | 94 | 1020.9 |
| 20260904031603 | 11 | 210 | 0.0 | 1.6 | 0.00 | 0.03 | 0.00 | 93 | 1020.7 |
| 20260904030046 | 11 | 210 | 0.0 | 3.2 | 0.00 | 0.03 | 0.00 | 93 | 1020.6 |
| 20260904024546 | 11 | 210 | 1.6 | 4.8 | 0.00 | 0.03 | 0.00 | 94 | 1020.7 |
| 20260904023037 | 11 | 210 | 0.0 | 3.2 | 0.00 | 0.03 | 0.00 | 94 | 1020.8 |
| 20260904020056 | 11 | 210 | 0.0 | 3.2 | 0.00 | 0.03 | 0.00 | 93 | 1021.0 |
| 20260904013051 | 11 | 210 | 0.0 | 3.2 | 0.00 | 0.03 | 0.00 | 93 | 1020.7 |
| 20260904011541 | 11 | 210 | 0.0 | 3.2 | 0.00 | 0.03 | 0.00 | 93 | 1020.7 |
| 20260904004608 | 12 | 209 | 0.0 | 4.8 | 0.00 | 0.03 | 0.00 | 93 | 1020.9 |
| 20260904003052 | 12 | 210 | 0.0 | 3.2 | 0.00 | 0.03 | 0.00 | 95 | 1021.0 |
| 20260904001541 | 11 | 240 | 0.0 | 0.0 | 0.00 | 0.03 | 0.00 | 93 | 1021.0 |
| 20260903234553 | 11 | 240 | 0.0 | 0.0 | 0.00 | 0.03 | 0.00 | 92 | 1021.0 |
| 20260903233042 | 12 | 240 | 0.0 | 0.0 | 0.00 | 0.03 | 0.00 | 93 | 1021.0 |
| 20260903230110 | 11 | 240 | 0.0 | 0.0 | 0.00 | 0.03 | 0.00 | 93 | 1021.1 |
| 20260903224556 | 11 | 240 | 0.0 | 0.0 | 0.00 | 0.03 | 0.00 | 93 | 1021.1 |
| 20260903223039 | 11 | 240 | 0.0 | 0.0 | 0.00 | 0.03 | 0.00 | 92 | 1021.2 |
| 20260903220407 | 12 | 240 | 0.0 | 0.0 | 0.00 | 0.03 | 0.00 | 92 | 1021.1 |
| 20260903214559 | 12 | 240 | 0.0 | 0.0 | 0.00 | 0.03 | 0.03 | 92 | 1021.0 |
| 20260903213109 | 12 | 240 | 0.0 | 3.2 | 0.00 | 0.03 | 0.03 | 92 | 1021.0 |
| 20260903210249 | 12 | 240 | 0.0 | 0.0 | 0.00 | 0.03 | 0.03 | 92 | 1020.9 |
| 20260903203313 | 12 | 240 | 0.0 | 0.0 | 0.00 | 0.03 | 0.03 | 91 | 1020.9 |
| 20260903201548 | 13 | 240 | 0.0 | 0.0 | 0.00 | 0.03 | 0.03 | 90 | 1020.8 |
| 20260903200051 | 13 | 240 | 0.0 | 3.2 | 0.00 | 0.03 | 0.03 | 90 | 1020.9 |
| 20260903193058 | 14 | 238 | 0.0 | 3.2 | 0.00 | 0.03 | 0.03 | 91 | 1020.6 |
| 20260903191550 | 14 | 238 | 0.0 | 0.0 | 0.00 | 0.03 | 0.03 | 89 | 1020.5 |
| 20260903184553 | 15 | 238 | 0.0 | 3.2 | 0.00 | 0.03 | 0.03 | 88 | 1020.4 |
| 20260903183045 | 16 | 238 | 0.0 | 0.0 | 0.00 | 0.03 | 0.03 | 85 | 1020.4 |
| 20260903180111 | 17 | 238 | 0.0 | 3.2 | 0.00 | 0.03 | 0.03 | 84 | 1020.1 |
| 20260903173105 | 18 | 238 | 1.6 | 4.8 | 0.00 | 0.03 | 0.03 | 82 | 1020.0 |
| 20260903171555 | 19 | 238 | 1.6 | 4.8 | 0.00 | 0.03 | 0.03 | 81 | 1019.9 |
| 20260903164555 | 20 | 238 | 1.6 | 4.8 | 0.00 | 0.03 | 0.03 | 76 | 1019.9 |
| 20260903161741 | 22 | 250 | 3.2 | 8.0 | 0.00 | 0.03 | 0.03 | 69 | 1019.6 |
| 20260903160108 | 22 | 26 | 1.6 | 6.4 | 0.00 | 0.03 | 0.03 | 69 | 1019.6 |
| 20260903153125 | 23 | 218 | 1.6 | 6.4 | 0.00 | 0.03 | 0.03 | 63 | 1019.4 |
| 20260903151546 | 24 | 199 | 1.6 | 9.7 | 0.00 | 0.03 | 0.03 | 63 | 1019.2 |
| 20260903144602 | 25 | 220 | 0.0 | 11.3 | 0.00 | 0.03 | 0.03 | 60 | 1019.5 |
| 20260903143052 | 25 | 223 | 3.2 | 11.3 | 0.00 | 0.03 | 0.03 | 57 | 1019.5 |
| 20260903140044 | 24 | 134 | 1.6 | 9.7 | 0.00 | 0.03 | 0.03 | 58 | 1020.1 |
| 20260903133057 | 25 | 207 | 1.6 | 12.9 | 0.00 | 0.03 | 0.03 | 55 | 1020.3 |
| 20260903131542 | 25 | 108 | 1.6 | 8.0 | 0.00 | 0.03 | 0.03 | 57 | 1020.1 |
| 20260903124603 | 23 | 132 | 0.0 | 6.4 | 0.00 | 0.03 | 0.03 | 60 | 1020.1 |
| 20260903121602 | 24 | 194 | 1.6 | 14.5 | 0.00 | 0.03 | 0.03 | 57 | 1020.5 |
| 20260903120041 | 24 | 225 | 1.6 | 19.3 | 0.00 | 0.03 | 0.03 | 59 | 1020.5 |
| 20260903113102 | 24 | 158 | 3.2 | 12.9 | 0.00 | 0.03 | 0.03 | 62 | 1020.7 |
| 20260903111554 | 24 | 236 | 3.2 | 9.7 | 0.00 | 0.03 | 0.03 | 60 | 1020.7 |
| 20260903104548 | 23 | 132 | 1.6 | 9.7 | 0.00 | 0.03 | 0.03 | 60 | 1021.0 |
| 20260903103040 | 23 | 229 | 3.2 | 9.7 | 0.00 | 0.03 | 0.03 | 59 | 1021.0 |
| 20260903101537 | 23 | 218 | 3.2 | 9.7 | 0.00 | 0.03 | 0.03 | 62 | 1020.9 |
| 20260903094604 | 23 | 206 | 1.6 | 12.9 | 0.00 | 0.03 | 0.03 | 67 | 1021.5 |
| 20260903093117 | 22 | 40 | 3.2 | 8.0 | 0.00 | 0.03 | 0.03 | 67 | 1021.4 |
| 20260903091539 | 22 | 156 | 1.6 | 4.8 | 0.00 | 0.03 | 0.03 | 67 | 1021.5 |
| 20260903084610 | 21 | 75 | 0.0 | 3.2 | 0.00 | 0.03 | 0.03 | 73 | 1021.4 |
| 20260903083052 | 21 | 50 | 0.0 | 3.2 | 0.00 | 0.03 | 0.03 | 75 | 1021.4 |
| 20260903080113 | 19 | 214 | 0.0 | 1.6 | 0.00 | 0.03 | 0.03 | 79 | 1021.4 |
| 20260903074541 | 18 | 214 | 0.0 | 3.2 | 0.00 | 0.03 | 0.03 | 86 | 1021.4 |